Dewpoint
72 72 72 64 52 50 45 45 46 44 49 55 58 59 60 60 56 51 65 69 71 71 73 73 75 75 75 75 75 75 76 76 76 76 76 77 77 75 76 76 75 74 75 75 75 75 75 74 73
70 67 65 60 50 44 44 49 48 50 53 56 56 58 59 60 63 63 65 70 71 72 72 73 75 75 75 75 75 75 75 75 76 76 77 77 77 76 76 75 74 74 74 74 75 75 74 74 74
69 67 59 57 52 45 48 52 50 51 53 52 55 59 61 62 63 64 68 71 72 71 73 73 75 74 75 75 76 75 74 75 75 77 77 77 76 75 75 75 74 74 74 74 74 74 75 74 74
65 61 59 51 48 51 50 50 52 50 50 54 58 59 62 65 64 66 69 71 71 72 72 74 75 74 75 75 76 77 76 76 76 77 77 76 76 75 75 75 75 75 74 73 72 73 74 74 74
63 58 52 49 50 52 51 51 53 50 54 56 57 58 60 64 66 67 68 69 71 72 72 72 75 74 75 76 77 76 77 77 76 76 76 76 76 76 75 75 75 74 75 74 73 73 74 73 73
59 59 51 47 49 51 49 51 53 51 55 58 59 58 60 65 64 65 66 68 71 73 72 73 76 76 76 76 75 76 76 76 76 76 76 76 75 75 75 75 75 75 74 74 74 73 73 74 73
56 55 52 52 51 49 48 52 52 53 54 56 59 58 61 64 64 63 65 69 72 73 73 73 73 74 76 76 76 77 77 77 76 77 77 76 75 75 76 75 75 74 74 75 74 74 72 73 73
60 56 52 51 47 44 48 51 53 47 51 58 59 58 60 63 64 64 67 69 71 72 73 74 74 73 74 74 77 77 77 77 77 76 75 75 74 74 74 76 76 74 74 74 73 73 73 72 73
60 54 53 52 44 36 50 48 47 50 55 56 57 59 61 63 65 68 68 68 70 71 73 73 74 75 74 74 75 77 76 76 75 74 75 75 73 73 74 75 75 74 74 74 74 73 73 73 73
55 52 52 52 39 39 49 47 47 53 54 55 57 60 62 64 67 67 67 67 68 71 72 73 73 74 74 74 74 75 74 74 73 73 73 74 73 73 74 74 75 74 74 73 74 74 73 72 72
51 45 44 42 27 25 41 46 51 53 52 54 57 58 63 65 66 67 67 67 68 70 72 73 73 73 74 73 74 74 74 74 74 74 74 73 73 73 73 74 73 73 74 73 74 73 73 72 72
28 42 32 25 23 24 30 48 52 52 53 54 58 59 63 64 65 65 66 66 68 69 70 72 73 73 73 73 74 74 73 74 73 73 73 73 72 72 72 73 73 72 73 72 73 73 73 71 71
27 27 26 28 25 22 23 46 52 52 54 55 57 61 61 62 63 64 65 66 68 68 69 71 71 72 72 72 73 72 73 73 73 73 73 73 72 72 72 72 73 72 72 72 72 72 71 71 70
25 25 25 28 26 26 20 36 49 54 54 55 57 59 60 61 62 63 63 63 66 66 67 70 70 71 71 72 72 72 72 72 72 73 73 73 72 71 72 72 72 72 72 72 72 71 71 70 70
23 24 26 27 28 23 20 28 47 53 54 54 55 57 59 60 61 61 63 63 64 64 66 68 69 71 71 72 71 71 71 71 71 72 72 73 72 71 71 71 71 72 72 72 71 71 71 70 69
23 26 25 25 22 21 19 18 51 53 53 53 54 54 56 59 61 61 63 63 64 63 66 67 69 70 69 72 71 70 70 71 71 71 72 72 73 72 71 71 70 71 71 71 70 69 69 69 69
23 24 25 24 21 19 22 20 51 52 52 52 53 54 54 54 57 60 63 65 65 65 66 67 68 69 69 71 72 71 70 71 71 71 72 72 72 73 71 71 71 70 70 70 70 69 68 68 68
22 16 19 23 18 23 21 21 50 52 51 52 52 53 53 54 54 56 60 64 66 66 67 68 69 70 70 70 72 72 70 70 71 71 72 72 72 72 72 71 71 71 70 69 69 68 68 68 67
28 20 18 23 21 22 23 29 38 51 51 51 51 52 52 53 54 58 62 64 65 66 68 69 70 70 70 70 70 70 70 69 69 71 72 73 72 72 71 71 70 70 70 69 70 69 68 67 67
26 18 20 20 20 20 26 27 36 45 50 51 51 52 52 53 56 59 63 64 66 68 68 69 70 70 71 70 69 70 69 68 69 69 71 72 72 71 71 70 70 70 70 70 69 68 67 67 68
23 20 22 23 22 19 25 27 34 49 55 54 52 52 53 54 57 59 64 63 65 68 69 69 70 70 70 70 70 70 70 70 68 68 68 70 72 72 72 71 70 70 70 69 70 69 68 67 67
35 24 23 22 20 16 22 22 32 42 54 57 58 56 55 56 60 61 65 65 64 65 69 70 71 70 71 71 70 69 68 67 68 68 68 68 72 72 72 72 71 70 70 70 69 69 69 67 66
21 25 24 25 20 29 21 20 31 46 52 55 58 60 61 62 61 63 65 66 65 67 68 71 70 70 70 71 70 70 69 69 69 69 70 70 70 72 72 72 71 71 70 69 69 69 69 69 67
26 25 25 28 23 20 21 22 27 43 51 53 57 59 61 61 63 64 66 67 67 69 69 71 71 70 70 70 71 71 70 70 69 70 70 70 71 70 72 72 72 71 71 69 69 68 68 69 69
24 22 20 22 23 22 26 27 29 37 48 55 55 58 59 59 62 64 66 67 68 69 70 70 71 71 71 71 71 71 71 72 71 70 71 71 71 70 71 72 72 72 72 72 71 70 69 70 70
23 21 21 22 20 22 29 32 34 40 47 51 56 57 57 57 58 62 63 64 65 67 69 70 70 70 71 72 72 73 72 72 72 72 72 72 72 72 71 70 71 72 72 72 71 71 71 70 70
25 22 23 21 25 19 23 34 39 42 46 48 50 54 55 56 58 59 59 60 61 62 64 66 69 68 67 70 71 72 73 72 72 72 72 72 72 72 72 71 71 70 71 72 71 71 70 70 70
22 22 18 20 19 22 24 31 34 37 42 46 50 53 55 56 57 59 59 59 59 60 60 61 63 63 64 65 66 67 67 69 70 71 70 70 71 72 73 72 72 71 70 71 71 69 70 70 70
23 23 26 23 23 22 23 30 37 37 42 45 49 52 53 52 54 55 56 57 58 59 60 60 61 61 62 64 66 66 67 67 68 68 69 69 70 70 70 71 72 72 72 70 71 71 70 70 70
25 24 27 26 26 26 24 23 33 37 40 44 45 47 51 52 53 53 54 56 56 56 57 58 60 61 63 63 64 64 65 65 65 65 65 66 67 68 69 70 70 70 72 71 70 70 72 71 70
Lifted_Index
-5 -5 -3 -2 -1 -0 -0 -0 -0 -1 -1 -2 -3 -2 -2 -1 -1 -0 -0 -1 -2 -2 -3 -3 -4 -4 -4 -4 -4 -4 -5 -5 -5 -5 -5 -5 -4 -4 -4 -4 -4 -4 -4 -4 -4 -4 -4 -3 -3
-5 -4 -2 -1 -1 -0 -1 -1 -1 -1 -1 -2 -2 -2 -2 -1 -1 -1 -1 -2 -2 -2 -3 -3 -4 -4 -4 -4 -4 -4 -4 -5 -5 -5 -5 -5 -5 -4 -4 -4 -4 -3 -3 -3 -4 -4 -4 -3 -3
-4 -3 -1 -1 -1 -0 -1 -1 -2 -2 -2 -2 -2 -2 -2 -1 -1 -1 -2 -3 -3 -2 -3 -3 -4 -4 -4 -5 -5 -4 -4 -5 -5 -5 -5 -5 -5 -5 -5 -4 -4 -3 -3 -3 -3 -4 -4 -3 -3
-2 -2 -1 -1 -0 -0 -1 -2 -2 -2 -2 -2 -2 -2 -2 -1 -1 -1 -2 -3 -3 -2 -3 -3 -4 -4 -4 -5 -5 -5 -5 -5 -5 -6 -6 -5 -5 -5 -5 -4 -4 -4 -3 -3 -3 -3 -3 -3 -3
-1 -1 -0 -0 -1 -1 -1 -1 -2 -2 -2 -2 -2 -2 -2 -2 -1 -1 -2 -2 -3 -3 -3 -3 -4 -5 -5 -5 -5 -5 -5 -5 -5 -6 -6 -5 -5 -5 -5 -5 -4 -4 -4 -4 -3 -3 -3 -3 -3
-1 -1 -1 -1 -2 -2 -1 -1 -2 -2 -2 -2 -2 -2 -2 -2 -1 -1 -1 -2 -3 -3 -3 -4 -5 -5 -5 -6 -6 -6 -5 -5 -6 -6 -6 -6 -5 -5 -5 -5 -4 -4 -4 -4 -4 -3 -3 -3 -3
-2 -2 -2 -2 -3 -3 -2 -2 -2 -2 -2 -2 -2 -2 -2 -2 -1 -1 -1 -2 -3 -4 -4 -4 -5 -6 -6 -6 -6 -6 -6 -6 -6 -6 -6 -6 -6 -5 -5 -5 -5 -4 -4 -4 -4 -3 -3 -3 -3
-2 -2 -2 -3 -3 -2 -2 -2 -2 -2 -2 -2 -2 -2 -2 -2 -2 -2 -2 -3 -4 -4 -5 -5 -6 -6 -6 -7 -7 -7 -7 -6 -6 -6 -6 -6 -6 -6 -5 -5 -5 -5 -4 -4 -4 -4 -3 -3 -3
-1 -1 -2 -3 -2 -2 -2 -2 -1 -2 -2 -2 -2 -2 -2 -2 -3 -3 -3 -3 -4 -4 -5 -5 -6 -7 -7 -7 -7 -7 -7 -6 -6 -6 -6 -6 -6 -6 -6 -6 -5 -5 -5 -4 -4 -4 -4 -3 -3
0 -0 -1 -1 -0 -0 -1 -1 -1 -2 -2 -2 -2 -2 -2 -3 -3 -4 -3 -3 -3 -4 -5 -6 -6 -6 -7 -7 -7 -7 -7 -6 -6 -6 -6 -6 -7 -7 -6 -6 -6 -5 -5 -5 -4 -4 -4 -3 -3
2 2 1 1 1 1 0 -0 -1 -2 -2 -3 -2 -3 -3 -4 -4 -4 -4 -3 -3 -4 -5 -5 -6 -6 -7 -7 -7 -7 -7 -7 -6 -6 -6 -6 -6 -6 -6 -6 -6 -6 -5 -5 -5 -4 -4 -3 -3
3 3 3 3 3 2 2 -0 -1 -2 -3 -3 -3 -3 -3 -4 -4 -4 -4 -3 -4 -4 -5 -5 -6 -6 -6 -7 -7 -7 -7 -7 -7 -6 -6 -6 -6 -5 -6 -6 -6 -6 -6 -5 -5 -4 -3 -3 -2
4 3 3 3 3 3 2 0 -1 -2 -2 -2 -2 -3 -3 -3 -4 -4 -4 -3 -4 -4 -4 -5 -5 -5 -6 -6 -6 -6 -6 -7 -7 -7 -6 -6 -5 -5 -5 -6 -6 -6 -6 -5 -5 -4 -3 -3 -2
3 3 2 3 3 3 2 1 -1 -2 -2 -2 -2 -2 -3 -3 -3 -3 -3 -3 -3 -4 -4 -5 -5 -5 -5 -6 -5 -5 -6 -6 -6 -6 -6 -6 -5 -5 -5 -5 -6 -6 -6 -5 -5 -4 -4 -3 -3
3 2 2 2 3 3 3 2 -0 -2 -2 -2 -2 -2 -2 -3 -3 -3 -3 -3 -3 -3 -4 -5 -5 -5 -5 -6 -5 -5 -5 -6 -6 -6 -6 -6 -6 -5 -5 -5 -5 -6 -6 -5 -5 -4 -4 -3 -3
2 2 1 2 2 2 2 1 -1 -2 -2 -2 -1 -1 -2 -2 -3 -3 -3 -4 -4 -4 -4 -5 -5 -6 -6 -6 -6 -5 -5 -5 -6 -6 -6 -6 -6 -6 -5 -5 -5 -5 -5 -5 -5 -4 -4 -4 -3
1 1 1 1 1 1 2 1 -1 -2 -2 -2 -2 -1 -1 -2 -3 -3 -3 -4 -4 -4 -4 -5 -6 -6 -6 -6 -6 -6 -6 -6 -6 -6 -6 -6 -6 -6 -6 -5 -5 -5 -5 -5 -4 -4 -4 -4 -3
1 1 1 1 1 1 1 1 -0 -2 -2 -2 -2 -2 -2 -3 -3 -3 -3 -4 -4 -4 -5 -5 -6 -6 -6 -6 -7 -7 -7 -6 -6 -6 -6 -6 -6 -7 -6 -6 -6 -5 -5 -5 -4 -4 -4 -4 -4
1 1 1 0 1 1 1 2 1 -1 -2 -2 -2 -3 -3 -3 -3 -3 -3 -3 -3 -4 -5 -5 -6 -6 -6 -7 -7 -7 -7 -7 -7 -6 -7 -7 -7 -7 -6 -6 -6 -5 -5 -5 -5 -4 -4 -4 -4
1 1 1 0 1 1 1 2 1 -0 -1 -2 -2 -3 -3 -4 -4 -3 -3 -2 -3 -4 -5 -5 -6 -6 -7 -7 -7 -7 -7 -7 -6 -6 -7 -7 -7 -7 -6 -6 -6 -5 -5 -5 -5 -5 -5 -4 -4
2 1 1 1 1 1 1 1 0 -1 -2 -2 -2 -3 -3 -4 -4 -4 -3 -3 -3 -4 -4 -5 -6 -6 -6 -7 -6 -7 -7 -7 -6 -6 -6 -6 -7 -7 -7 -6 -6 -6 -6 -5 -5 -5 -5 -5 -5
2 2 2 2 1 1 1 0 -1 -2 -3 -3 -3 -3 -4 -4 -4 -5 -5 -5 -5 -4 -4 -5 -6 -6 -6 -6 -6 -6 -6 -6 -6 -6 -6 -6 -7 -7 -7 -7 -6 -6 -6 -6 -6 -5 -5 -5 -4
3 3 2 2 1 1 1 1 -0 -2 -3 -4 -4 -4 -4 -5 -5 -6 -6 -6 -6 -5 -5 -5 -5 -6 -6 -6 -6 -6 -6 -6 -6 -6 -6 -6 -7 -7 -7 -7 -7 -7 -6 -6 -6 -6 -5 -5 -4
3 2 2 2 1 1 1 1 0 -1 -3 -4 -5 -5 -5 -5 -6 -6 -7 -7 -6 -6 -5 -5 -5 -5 -5 -6 -6 -6 -6 -6 -6 -7 -7 -7 -7 -7 -7 -7 -7 -7 -7 -6 -6 -6 -5 -5 -5
2 2 1 1 1 1 1 1 1 -0 -2 -4 -5 -6 -6 -6 -6 -6 -6 -6 -6 -6 -6 -6 -6 -6 -5 -5 -5 -5 -6 -6 -7 -7 -7 -7 -7 -7 -7 -8 -7 -7 -7 -6 -6 -5 -5 -5 -5
3 2 1 1 1 1 1 1 1 1 -1 -3 -5 -5 -6 -6 -6 -6 -6 -6 -6 -6 -6 -6 -6 -6 -6 -6 -6 -6 -6 -6 -6 -6 -6 -7 -7 -7 -7 -7 -7 -7 -7 -7 -6 -5 -5 -5 -5
3 3 3 2 1 1 1 1 1 1 -0 -2 -4 -5 -5 -5 -5 -4 -5 -5 -5 -5 -5 -5 -5 -5 -5 -5 -5 -6 -6 -6 -6 -6 -6 -6 -6 -6 -6 -6 -6 -6 -7 -7 -6 -6 -5 -5 -5
3 3 3 3 2 1 1 1 1 1 -0 -1 -3 -4 -4 -4 -3 -3 -3 -3 -4 -4 -4 -3 -3 -3 -3 -3 -4 -4 -4 -4 -5 -5 -5 -5 -5 -5 -6 -6 -6 -6 -6 -6 -6 -6 -6 -6 -6
3 3 3 3 2 1 1 2 1 0 -0 -1 -2 -3 -3 -3 -3 -3 -3 -3 -3 -3 -3 -2 -2 -2 -2 -2 -2 -3 -3 -3 -3 -3 -3 -3 -4 -4 -4 -5 -5 -5 -6 -6 -6 -6 -6 -6 -6
2 3 3 3 3 2 2 2 1 0 -1 -1 -1 -2 -2 -3 -3 -3 -3 -3 -3 -3 -2 -2 -2 -1 -1 -2 -2 -2 -2 -2 -2 -2 -2 -2 -2 -3 -3 -4 -5 -5 -6 -6 -6 -6 -6 -6 -6